記事タイトル:C/2001A2のA核・B核の軌道 

最新の情報は「更新」や「再読み込み」ボタンを押してリロードしてご覧ください。

書き込み欄へ  ヘルプ
お名前: 村岡健治   
MPEC−K13をみると、C/2001A2−Bの軌道が出ています。
観測値は、A核も出ていましたので、両核について下記のように計算しました。
4月30日の分裂観測があった後、5月4日に核表示の無い観測がありましたが、
これは、B核にはフィットしません(MPECでは削除していました)
また、A核は非重力効果を入れないと分裂以後の観測に合いませんでした。
計算にはMPECの計算に入ってない、芸西の4月の観測が多数はいっています。

 Comet C/2001 A2-A ( LINEAR )

   The following improved orbital elements by Kenji Muraoka,
  are from 429 observations 2001 Jan. 3 to May 18, including
  9 Planets, Moon and 5 minor planets perturbations and non-
  gravitational effect of style II.
   The mean residual is +/- 0.59 arc seconds.

      Epoch  =  2001 May  11.0  TT       JDT = 2452040.5
          T  =  2001 May  24.52344       +/- 0.00067 (m.e.) TT
       Peri. =  295.32193                +/- 0.00013
       Node  =  295.12784                +/- 0.00014   (2000.0)
       Incl. =   36.48684                +/- 0.00068
          q  =    0.7790555              +/- 0.0000013 AU
          e  =    0.9996563              +/- 0.0000042
        1/a  =   +0.0004412              +/- 0.0000054 1/AU
         A1  =   -2.41                   +/- 0.40
         A2  =   +2.0308                 +/- 0.1644


 Comet C/2001 A2-B ( LINEAR )

   The following improved orbital elements by Kenji Muraoka, are
  from 428 observations 2001 Jan. 3 to 2001 May 18, perturbations
  by 9 Planets, Moon and 5 minor planets were taken into account.
   The mean residual is +/- 0.58 arc seconds.

      Epoch  =  2001 May  11.0  TT       JDT = 2452040.5
          T  =  2001 May  24.52047       +/- 0.00006 (m.e.) TT
       Peri. =  295.32816                +/- 0.00017
       Node  =  295.12560                +/- 0.00016   (2000.0)
       Incl. =   36.47555                +/- 0.00010
          q  =    0.7790303              +/- 0.0000004 AU
          e  =    0.9993583              +/- 0.0000034
        1/a  =   +0.0008237              +/- 0.0000043 1/AU
        ( P  =  42303 years )

村岡健治
[2001年5月20日 12時50分51秒]

この記事への返信をどうぞ。
氏名
E-mail URL



記事一覧に戻る